This demonstration page uses our WeatherBlox Daily Observations layout. Learn more.

Left ArrowRight Arrow

34.02893, -84.19858

Hourly Observations for August 11, 2022

Temp ( °F °C ) Dew Point ( °F °C ) Humidity (%) Winds ( mph kmh ) Pressure ( in mb ) Visibility ( mi km ) Precip ( " mm )
12:53 am 00:53 Clear 72 22.2 71 21.7 97 97 Calm 30.11 1020 8 13 0.01 0.13
1:53 am 01:53 Clear with Mist and Fog 71 21.7 71 21.7 100 100 Calm 30.11 1020 6 10 0.00 0.00
2:15 am 02:15 Mostly Cloudy 71 21.7 71 21.7 100 100 Calm 30.12 1020 8 13 0.00 0.00
2:53 am 02:53 Mostly Cloudy 72 22.2 71 21.7 97 97 Calm 30.09 1019 9 14 0.00 0.00
3:35 am 03:35 Mostly Clear 71 21.7 70 21.1 96 96 Calm 30.11 1020 10 16 0.00 0.00
3:53 am 03:53 Clear 71 21.7 71 21.7 100 100 Calm 30.08 1019 7 11 0.00 0.00
4:53 am 04:53 Mostly Clear 72 22.2 71 21.7 97 97 Calm 30.09 1019 9 14 0.00 0.00
5:53 am 05:53 Mostly Cloudy 71 21.7 70 21.1 96 96 WSW 3 6 30.08 1019 10 16 0.00 0.00
6:53 am 06:53 Clear 71 21.7 70 21.1 96 96 WSW 5 7 30.08 1019 10 16 0.00 0.00
7:53 am 07:53 Partly Cloudy 72 22.2 70 21.1 93 93 SW 3 6 30.09 1019 10 16 0.00 0.00
8:53 am 08:53 Sunny 73 22.8 70 21.1 90 90 SW 5 7 30.10 1019 10 16 0.00 0.00
9:53 am 09:53 Sunny 74 23.3 69 20.6 85 85 SSW 5 7 30.10 1019 10 16 0.00 0.00
10:53 am 10:53 Sunny 75 23.9 70 21.1 84 84 WSW 5 7 30.11 1020 10 16 0.00 0.00
11:53 am 11:53 Mostly Sunny 77 25 69 20.6 77 77 WNW 3 6 30.11 1020 10 16 0.00 0.00
12:53 pm 12:53 Sunny 77 25 70 21.1 79 79 Calm 30.09 1019 10 16 0.00 0.00
1:53 pm 13:53 Sunny 79 26.1 71 21.7 77 77 W 3 6 30.07 1018 10 16 0.00 0.00
2:53 pm 14:53 Mostly Sunny 80 26.7 71 21.7 74 74 Calm 30.05 1018 10 16 0.00 0.00
3:53 pm 15:53 Sunny 81 27.2 71 21.7 72 72 Calm 30.02 1017 10 16 0.00 0.00
4:53 pm 16:53 Mostly Cloudy 83 28.3 71 21.7 67 67 S 3 6 29.99 1016 10 16 0.00 0.00
5:53 pm 17:53 Mostly Cloudy 83 28.3 69 20.6 63 63 Calm 29.98 1015 10 16 0.00 0.00
6:53 pm 18:53 Sunny 85 29.4 69 20.6 59 59 Calm 29.96 1015 10 16 0.00 0.00
7:53 pm 19:53 Mostly Cloudy 80 26.7 71 21.7 74 74 S 6 9 29.98 1015 10 16 0.00 0.00
8:51 pm 20:51 Cloudy with Nearby Thunderstorms 77 25 70 21 79 79 SSW 7 11 30.03 1017 10 16 0.00 0.00
8:53 pm 20:53 Cloudy with Nearby Thunderstorms 77 25 70 21.1 79 79 SW 9 15 30.03 1017 5 8 0.04 1.02
8:58 pm 20:58 Cloudy with Nearby Thunderstorms 75 23.9 71 21.7 88 88 W 8 13 30.04 1017 2 3 0.07 1.78
9:17 pm 21:17 Cloudy with Rain 73 22.8 71 21.7 94 94 SSW 18 30 30.04 1017 3 4 0.22 5.59
9:45 pm 21:45 Cloudy with Light Rain 73 22.8 71 21.7 94 94 SSW 9 15 30.04 1017 6 10 0.39 9.91
9:53 pm 21:53 Cloudy with Light Rain 73 22.8 71 21.7 94 94 SSW 8 13 30.04 1017 9 14 0.40 10.16
10:12 pm 22:12 Cloudy 73 22.8 72 22.2 96 96 SW 6 9 30.04 1017 10 16 0.01 0.13
10:53 pm 22:53 Clear 72 22.2 71 21.7 97 97 Calm 30.03 1017 10 16 0.01 0.13
11:53 pm 23:53 Mostly Cloudy 73 22.8 71 21.7 94 94 WSW 5 7 30.02 1017 10 16 0.00 0.00

Powered by AerisWeather